Mountain Home, ID

11:10 PM MDT on July 27, 2017 (GMT -0600)
Mountain Home Air Force Base

Weather History for KMUO - February, 2014

Change the Weather History Date:

Sunday, February 23, 2014

  Actual Average Record
Temperature  
Mean Temperature 41 °F 37 °F  
Max Temperature 56 °F 47 °F 69 °F (1954)
Min Temperature 26 °F 25 °F 10 °F (1942)
Degree Days  
Heating Degree Days 24 28  
Month to date heating degree days 614 705  
Cooling Degree Days 0 0  
Month to date cooling degree days 0 0  
Moisture  
Dew Point 32 °F    
Average Humidity 75    
Maximum Humidity 100    
Minimum Humidity 33    
Precipitation  
Precipitation 0.00 in 0.04 in 0.63 in (1986)
Month to date precipitation 0.53 0.69  
Sea Level Pressure  
Sea Level Pressure 30.02 in    
Wind  
Wind Speed 3 mph (NE)    
Max Wind Speed 8 mph    
Max Gust Speed -    
Visibility 10 miles    
Events      
T = Trace of Precipitation, MM = Missing Value Source: NWS Daily Summary

Daily Weather History Graph

Daily Weather History Graph

Search for Another Location

Airport or City:

Trip Planner

Search our weather history database for the weather conditions in past years. The results will help you decide how hot, cold, wet, or windy it might be!

Date:

Astronomy

Feb. 23, 2014 Rise Set
Actual Time 7:28 AM MST 6:25 PM MST
Civil Twilight 7:00 AM MST 6:54 PM MST
Nautical Twilight 6:27 AM MST 7:27 PM MST
Astronomical Twilight 5:54 AM MST 7:59 PM MST
Moon 2:36 AM MST (2/23) 12:27 PM MST (2/23)
Length of Visible Light 11h 53m
Length of Day
10h 56m
Last Quarter, 38% of the Moon is Illuminated
Feb 23
Last Quarter
Mar 1
New
Mar 8
First Quarter
Mar 16
Full
Mar 23
Last Quarter

Hourly Weather History & Observations

Time (MST) Temp. Windchill Dew Point Humidity Pressure Visibility Wind Dir Wind Speed Gust Speed Precip Events Conditions
12:58 AM 33.8 °F - 33.6 °F 99% 30.04 in 10.0 mi NW 2.3 mph - N/A   Overcast
1:58 AM 35.6 °F - 35.2 °F 99% 30.02 in 10.0 mi West 2.3 mph - N/A   Overcast
2:48 AM 33.8 °F 30.8 °F 33.8 °F 100% 29.99 in 10.0 mi WSW 3.5 mph - N/A   Overcast
2:58 AM 34.2 °F 30.0 °F 34.2 °F 100% 30.03 in 10.0 mi West 4.6 mph - N/A   Overcast
3:58 AM 34.0 °F - 34.0 °F 100% 30.02 in 10.0 mi West 2.3 mph - N/A   Overcast
4:58 AM 32.0 °F 28.7 °F 32.0 °F 100% 30.04 in 10.0 mi West 3.5 mph - N/A   Mostly Cloudy
5:03 AM 32.0 °F - 32.0 °F 100% 30.00 in 10.0 mi SW 1.2 mph - N/A   Scattered Clouds
5:58 AM 29.5 °F - 29.5 °F 100% 30.06 in 10.0 mi NNE 2.3 mph - N/A   Clear
6:58 AM 27.7 °F 22.4 °F 27.7 °F 100% 30.06 in 10.0 mi East 4.6 mph - N/A   Clear
7:58 AM 27.5 °F 22.2 °F 27.5 °F 100% 30.08 in 10.0 mi SSE 4.6 mph - N/A   Clear
8:53 AM 35.6 °F - 35.6 °F 100% 30.04 in 10.0 mi North 1.2 mph - N/A   Mostly Cloudy
8:58 AM 34.7 °F - 34.7 °F 100% 30.09 in 10.0 mi North 1.2 mph - N/A   Mostly Cloudy
9:23 AM 37.4 °F - 37.4 °F 100% 30.04 in 10.0 mi ENE 2.3 mph - N/A   Scattered Clouds
9:58 AM 41.4 °F 39.4 °F 37.0 °F 85% 30.09 in 10.0 mi East 3.5 mph - N/A   Scattered Clouds
10:58 AM 46.9 °F - 31.8 °F 56% 30.07 in 10.0 mi East 3.5 mph - N/A   Clear
11:58 AM 50.4 °F - 28.8 °F 43% 30.06 in 10.0 mi Variable 2.3 mph - N/A   Clear
12:58 PM 52.9 °F - 27.5 °F 38% 30.04 in 10.0 mi Variable 2.3 mph - N/A   Clear
1:58 PM 53.1 °F - 27.1 °F 37% 29.99 in 10.0 mi ENE 4.6 mph - N/A   Scattered Clouds
2:58 PM 54.5 °F - 26.8 °F 34% 29.98 in 10.0 mi East 3.5 mph - N/A   Partly Cloudy
3:58 PM 55.2 °F - 26.2 °F 33% 29.97 in 10.0 mi Variable 1.2 mph - N/A   Clear
4:58 PM 55.4 °F - 27.1 °F 34% 29.95 in 10.0 mi North 5.8 mph - N/A   Partly Cloudy
5:58 PM 54.1 °F - 28.8 °F 38% 29.96 in 10.0 mi NNE 8.1 mph - N/A   Clear
6:58 PM 49.1 °F - 30.7 °F 49% 29.98 in 10.0 mi NNE 3.5 mph - N/A   Scattered Clouds
7:58 PM 46.8 °F - 32.4 °F 57% 29.99 in 10.0 mi East 2.3 mph - N/A   Overcast
8:58 PM 43.3 °F 39.9 °F 36.0 °F 75% 29.99 in 10.0 mi SE 5.8 mph - N/A   Overcast
9:58 PM 45.1 °F - 34.0 °F 65% 29.99 in 10.0 mi Calm Calm - N/A   Overcast
10:58 PM 42.4 °F 39.6 °F 38.8 °F 87% 29.98 in 10.0 mi East 4.6 mph - N/A   Overcast
11:58 PM 43.7 °F - 37.9 °F 80% 29.98 in 10.0 mi NNE 2.3 mph - N/A   Overcast